| time (UTC) | temp F | wind direction | speed knots | gust knots | rain 1hr in | rain 24hr in | rain mn in | humidity % | barometer mb |
| 20260506130045 | 75 | 148 | 1.7 | 4.3 | 0.00 | 0.00 | 0.00 | 97 | 1011.4 |
| 20260506124546 | 75 | 137 | 1.7 | 4.3 | 0.00 | 0.00 | 0.00 | 97 | 1011.2 |
| 20260506123044 | 75 | 144 | 2.6 | 6.1 | 0.00 | 0.00 | 0.00 | 97 | 1010.9 |
| 20260506121538 | 75 | 165 | 2.6 | 5.2 | 0.00 | 0.00 | 0.00 | 97 | 1010.7 |
| 20260506120104 | 75 | 164 | 2.6 | 5.2 | 0.00 | 0.00 | 0.00 | 97 | 1010.5 |
| 20260506114547 | 75 | 153 | 2.6 | 7.8 | 0.00 | 0.00 | 0.00 | 97 | 1010.6 |
| 20260506113044 | 75 | 160 | 2.6 | 6.1 | 0.00 | 0.00 | 0.00 | 97 | 1010.4 |
| 20260506111544 | 75 | 157 | 3.5 | 7.8 | 0.00 | 0.00 | 0.00 | 97 | 1010.3 |
| 20260506110041 | 75 | 153 | 3.5 | 8.7 | 0.00 | 0.00 | 0.00 | 97 | 1010.2 |
| 20260506104541 | 75 | 142 | 3.5 | 8.7 | 0.00 | 0.00 | 0.00 | 97 | 1009.9 |
| 20260506103044 | 75 | 173 | 3.5 | 7.8 | 0.00 | 0.00 | 0.00 | 97 | 1009.9 |
| 20260506101548 | 75 | 160 | 3.5 | 9.6 | 0.00 | 0.00 | 0.00 | 97 | 1009.8 |
| 20260506100044 | 75 | 168 | 4.3 | 8.7 | 0.00 | 0.00 | 0.00 | 97 | 1009.8 |
| 20260506094546 | 75 | 163 | 3.5 | 8.7 | 0.00 | 0.00 | 0.00 | 97 | 1009.9 |
| 20260506093046 | 75 | 184 | 2.6 | 7.0 | 0.00 | 0.00 | 0.00 | 97 | 1010.0 |
| 20260506091538 | 75 | 163 | 3.5 | 7.8 | 0.00 | 0.00 | 0.00 | 97 | 1010.2 |
| 20260506090045 | 75 | 163 | 1.7 | 5.2 | 0.00 | 0.00 | 0.00 | 96 | 1010.3 |
| 20260506084537 | 75 | 157 | 0.9 | 6.1 | 0.00 | 0.00 | 0.00 | 96 | 1010.4 |
| 20260506083045 | 75 | 221 | 0.9 | 7.8 | 0.00 | 0.00 | 0.00 | 96 | 1010.4 |
| 20260506081549 | 74 | 137 | 0.0 | 1.7 | 0.00 | 0.00 | 0.00 | 96 | 1010.5 |
| 20260506073050 | 75 | 93 | 2.6 | 6.1 | 0.00 | 0.00 | 0.00 | 96 | 1010.6 |
| 20260506071550 | 75 | 163 | 2.6 | 7.0 | 0.00 | 0.00 | 0.00 | 95 | 1010.7 |
| 20260506070107 | 75 | 212 | 3.5 | 7.8 | 0.00 | 0.00 | 0.00 | 95 | 1010.7 |
| 20260506061538 | 75 | 177 | 4.3 | 8.7 | 0.00 | 0.00 | 0.00 | 94 | 1010.7 |
| 20260506044556 | 75 | 157 | 2.6 | 7.8 | 0.00 | 0.00 | 0.00 | 94 | 1011.0 |
| 20260506043046 | 75 | 173 | 4.3 | 9.6 | 0.00 | 0.00 | 0.00 | 93 | 1010.9 |
| 20260506041551 | 75 | 159 | 3.5 | 9.6 | 0.00 | 0.00 | 0.00 | 93 | 1010.8 |
| 20260506040046 | 75 | 149 | 7.0 | 13.9 | 0.00 | 0.00 | 0.00 | 93 | 1010.7 |
| 20260506034542 | 75 | 171 | 4.3 | 12.2 | 0.00 | 0.00 | 0.00 | 93 | 1010.8 |
| 20260506033038 | 75 | 171 | 6.1 | 13.0 | 0.00 | 0.00 | 0.00 | 93 | 1010.5 |
| 20260506031553 | 75 | 215 | 6.1 | 10.4 | 0.00 | 0.00 | 0.00 | 94 | 1010.4 |
| 20260506024546 | 75 | 155 | 5.2 | 12.2 | 0.00 | 0.00 | 0.00 | 94 | 1010.0 |
| 20260506023045 | 75 | 155 | 6.1 | 13.0 | 0.00 | 0.00 | 0.00 | 94 | 1009.8 |
| 20260506021539 | 76 | 167 | 5.2 | 13.9 | 0.00 | 0.00 | 0.00 | 93 | 1009.6 |
| 20260506020037 | 76 | 173 | 5.2 | 12.2 | 0.00 | 0.00 | 0.00 | 92 | 1009.6 |
| 20260506014544 | 76 | 162 | 5.2 | 11.3 | 0.00 | 0.00 | 0.00 | 92 | 1009.5 |
| 20260506013048 | 76 | 171 | 5.2 | 11.3 | 0.00 | 0.00 | 0.00 | 92 | 1009.4 |
| 20260506011552 | 76 | 182 | 5.2 | 13.9 | 0.00 | 0.00 | 0.00 | 92 | 1009.2 |
| 20260506010044 | 76 | 175 | 7.0 | 15.6 | 0.00 | 0.00 | 0.00 | 92 | 1009.1 |
| 20260506004610 | 76 | 151 | 4.3 | 12.2 | 0.00 | 0.00 | 0.00 | 92 | 1008.9 |
| 20260506003045 | 76 | 153 | 6.1 | 10.4 | 0.00 | 0.00 | 0.00 | 91 | 1009.0 |
| 20260506001545 | 77 | 178 | 6.1 | 13.0 | 0.00 | 0.00 | 0.00 | 92 | 1009.1 |
| 20260506000048 | 77 | 167 | 5.2 | 12.2 | 0.00 | 0.00 | 0.00 | 91 | 1009.2 |
| 20260505234609 | 77 | 151 | 4.3 | 15.6 | 0.00 | 0.00 | 0.00 | 91 | 1009.0 |
| 20260505233044 | 77 | 221 | 6.1 | 16.5 | 0.00 | 0.00 | 0.00 | 91 | 1009.1 |
| 20260505231542 | 77 | 175 | 4.3 | 15.6 | 0.00 | 0.00 | 0.00 | 91 | 1009.2 |
| 20260505230051 | 77 | 163 | 6.1 | 15.6 | 0.00 | 0.00 | 0.00 | 91 | 1009.1 |
| 20260505224544 | 78 | 177 | 5.2 | 13.9 | 0.00 | 0.00 | 0.00 | 90 | 1009.0 |
| 20260505223059 | 78 | 201 | 4.3 | 12.2 | 0.00 | 0.00 | 0.00 | 91 | 1009.1 |
| 20260505221557 | 78 | 139 | 5.2 | 11.3 | 0.00 | 0.00 | 0.00 | 90 | 1009.0 |
| 20260505220057 | 78 | 163 | 3.5 | 10.4 | 0.00 | 0.00 | 0.00 | 90 | 1009.1 |
| 20260505214552 | 78 | 211 | 6.1 | 13.0 | 0.00 | 0.00 | 0.00 | 89 | 1009.2 |
| 20260505213049 | 79 | 202 | 4.3 | 15.6 | 0.00 | 0.00 | 0.00 | 88 | 1009.4 |
| 20260505211544 | 78 | 168 | 4.3 | 13.9 | 0.00 | 0.00 | 0.00 | 88 | 1009.5 |
| 20260505210047 | 78 | 191 | 4.3 | 16.5 | 0.00 | 0.00 | 0.00 | 88 | 1009.7 |
| 20260505204543 | 78 | 158 | 6.1 | 12.2 | 0.00 | 0.00 | 0.00 | 88 | 1009.9 |
| 20260505203045 | 78 | 225 | 3.5 | 13.0 | 0.00 | 0.00 | 0.00 | 87 | 1010.1 |
| 20260505201542 | 78 | 162 | 3.5 | 13.0 | 0.00 | 0.00 | 0.00 | 87 | 1010.0 |
| 20260505200059 | 78 | 203 | 2.6 | 16.5 | 0.00 | 0.00 | 0.00 | 86 | 1010.2 |
| 20260505194550 | 79 | 175 | 3.5 | 10.4 | 0.00 | 0.00 | 0.00 | 86 | 1010.3 |
| 20260505193042 | 79 | 144 | 3.5 | 15.6 | 0.00 | 0.00 | 0.00 | 86 | 1010.2 |
| 20260505191543 | 79 | 146 | 4.3 | 14.8 | 0.00 | 0.00 | 0.00 | 86 | 1010.3 |
| 20260505190049 | 79 | 193 | 3.5 | 13.0 | 0.00 | 0.00 | 0.00 | 86 | 1010.4 |
| 20260505184538 | 79 | 252 | 3.5 | 14.8 | 0.00 | 0.00 | 0.00 | 85 | 1010.5 |
| 20260505183048 | 80 | 173 | 5.2 | 14.8 | 0.00 | 0.00 | 0.00 | 84 | 1010.5 |
| 20260505181545 | 80 | 167 | 4.3 | 17.4 | 0.00 | 0.00 | 0.00 | 85 | 1010.7 |
| 20260505180044 | 78 | 178 | 2.6 | 14.8 | 0.00 | 0.00 | 0.00 | 86 | 1010.7 |
| 20260505174546 | 78 | 170 | 4.3 | 16.5 | 0.00 | 0.00 | 0.00 | 86 | 1010.9 |
| 20260505173044 | 78 | 185 | 4.3 | 11.3 | 0.00 | 0.00 | 0.00 | 86 | 1011.0 |
| 20260505171545 | 77 | 175 | 6.1 | 16.5 | 0.00 | 0.00 | 0.00 | 86 | 1011.1 |
| 20260505170044 | 78 | 228 | 3.5 | 14.8 | 0.00 | 0.00 | 0.00 | 85 | 1011.1 |
| 20260505164544 | 78 | 153 | 6.1 | 15.6 | 0.00 | 0.00 | 0.00 | 84 | 1010.9 |
| 20260505163042 | 79 | 225 | 5.2 | 20.0 | 0.00 | 0.00 | 0.00 | 83 | 1010.9 |
| 20260505161540 | 78 | 236 | 6.1 | 21.7 | 0.00 | 0.00 | 0.00 | 84 | 1010.9 |
| 20260505153048 | 78 | 162 | 8.7 | 19.1 | 0.00 | 0.00 | 0.00 | 84 | 1010.9 |
| 20260505151545 | 77 | 221 | 2.6 | 10.4 | 0.00 | 0.00 | 0.00 | 85 | 1011.2 |